[[{"header":{"parameterUnit":"m.s-1","parameterCategory":1,"la1":30.2991,"la2":30.254,"lo1":-89.0895,"lo2":-89.0444,"dy":0.0017,"dx":0.0017,"nx":28,"ny":28,"refTime":"2024-09-28T03:00:00:Z","depth":0,"parameterNumber":2,"parameterNumberName":"U-component_of_WINDS"},"data":[0,0,0,0,0,0,0,0,0,0,0,0,0,0,0,0,0,0,0,0,0,0,0,0,0,0,0,0,0,0,0,0,0,0,0,0,0,0,0,0,0,0,0,0,0,0,0,0,0,0,0,0,0,0,0,0,0,0,5.2321,5.2323,0,5.2481,5.2483,5.2485,5.239,5.2386,5.2381,5.2377,5.2544,5.2553,5.2561,0,0,0,0,0,0,0,0,0,0,0,0,0,5.1935,5.1942,5.2321,5.2323,5.2325,5.2481,5.2483,5.2486,5.2391,5.2385,5.238,5.2375,5.2541,5.2552,5.2562,0,0,0,0,0,0,0,0,0,0,0,0,0,5.21,5.1945,5.2321,5.2297,5.2296,5.2481,5.2483,5.2486,5.2392,5.2385,5.2378,5.2372,5.2538,5.2551,5.2564,5.2782,0,0,5.2604,5.2609,0,0,0,0,0,0,0,0,5.209,5.2114,5.2298,5.2299,5.2298,5.2409,5.2408,5.2585,5.2394,5.2356,5.2377,5.2369,5.2505,5.252,5.2565,5.279,5.2797,5.2605,5.2613,5.2618,5.2622,0,0,0,0,0,0,0,5.2079,5.2106,5.2385,5.2301,5.2301,5.2278,5.2294,5.2441,5.2467,5.2359,5.2352,5.2372,5.2504,5.2553,5.2569,5.2799,5.2604,5.2616,5.2624,5.2629,5.3207,5.3214,0,0,0,0,0,0,5.2069,5.2098,5.238,5.2389,5.2175,5.2291,5.2308,5.238,5.2465,5.2471,5.2378,5.2367,5.2534,5.2554,5.2574,5.2833,5.2618,5.263,5.2638,5.3199,5.3208,5.3216,0,0,0,0,0,0,5.2061,5.2095,5.2373,5.2242,5.2275,5.2305,5.2386,5.2387,5.2436,5.248,5.2484,5.2424,5.2529,5.2556,5.273,5.2837,5.2636,5.2648,5.319,5.3202,5.3212,5.3353,0,0,0,0,0,0,5.205,5.2093,5.2176,5.2244,5.2283,5.2526,5.2393,5.2395,5.2459,5.2446,5.2524,5.253,5.2526,5.2711,5.2743,5.2852,5.2658,5.3181,5.3196,5.3209,5.3339,5.3368,5.3392,0,0,0,0,0,5.2037,5.2211,5.2181,5.2215,5.2387,5.2533,5.2555,5.2546,5.2468,5.2552,5.2579,5.2528,5.282,5.2729,5.2765,5.2879,5.3174,5.3191,5.3208,5.3327,5.3362,5.3392,0,0,0,0,0,0,5.2157,5.222,5.2187,5.2388,5.2455,5.2516,5.2622,5.2584,5.2676,5.266,5.2646,5.2664,5.2845,5.288,5.2777,5.3093,5.2985,5.301,5.3064,5.3097,5.3124,5.3111,5.2669,0,0,0,0,0,5.2206,5.2318,5.2367,5.254,5.2575,5.2593,5.2656,5.2643,5.2713,5.2741,5.2781,5.2852,5.2959,5.303,5.3132,5.3343,5.3358,5.3439,5.3466,5.3488,5.3509,5.362,5.3656,5.3272,5.3272,5.3271,0,0,5.231,5.2358,5.2431,5.2565,5.2616,5.2732,5.2618,5.2747,5.2832,5.2761,5.2926,5.2959,5.3036,5.3229,5.3316,5.3263,5.3618,5.3509,5.3526,5.3536,5.3641,5.3678,5.371,5.3283,5.3281,5.3279,0,0,5.2559,5.2607,5.2755,5.2807,5.2884,5.2894,5.293,5.2996,5.3014,5.3179,5.3127,5.3229,5.3416,5.3472,5.3525,5.3791,5.3747,5.3825,5.3964,5.4073,5.4103,5.413,5.4222,5.4256,5.3846,5.3847,5.3847,0,5.2679,5.2851,5.2836,5.2967,5.3027,5.2966,5.3115,5.3167,5.3274,5.3317,5.3256,5.3485,5.3534,5.3737,5.3802,5.3848,5.3887,5.3816,5.41,5.4127,5.4151,5.4239,5.4275,5.3855,5.3854,5.3853,5.3853,0,5.2993,5.3113,5.3223,5.3325,5.3398,5.3538,5.3544,5.3619,5.3599,5.3615,5.3783,5.3838,5.3948,5.3996,5.3979,5.4197,5.4161,5.4101,5.3992,5.4197,5.4279,5.4313,5.3868,5.3865,5.3862,5.386,0,0,5.3323,5.3412,5.3453,5.3497,5.3577,5.3669,5.3805,5.3911,5.3975,5.4051,5.4163,5.4321,5.4264,5.4324,5.4313,5.4408,5.4612,5.4336,5.4337,5.4383,5.4852,5.4896,5.4936,5.4583,5.459,5.4595,5.4845,0,5.3574,5.381,5.3799,5.402,5.413,5.4072,5.419,5.4251,5.427,5.4365,5.4386,5.4496,5.4415,5.445,5.4542,5.4568,5.4706,5.455,5.4687,5.4692,5.4668,5.4979,5.5027,5.526,5.4877,5.4883,5.4887,0,5.3899,5.3983,5.4214,5.4274,5.432,5.4426,5.452,5.4613,5.468,5.4687,5.4752,5.4724,5.4861,5.4749,5.4936,5.483,5.4886,5.4907,5.4915,5.4927,5.4801,5.4997,5.5335,5.5369,5.4938,5.4934,5.493,0,5.4114,5.4284,5.4444,5.4484,5.4559,5.4634,5.4669,5.4729,5.4793,5.4875,5.4916,5.5014,5.5068,5.5145,5.5144,5.5063,5.5333,5.5221,5.5341,5.5341,5.54,5.5396,5.5749,5.5439,5.5438,5.5437,5.5437,0,5.4395,5.4538,5.454,5.4639,5.4797,5.4783,5.494,5.4967,5.502,5.5122,5.5079,5.5176,5.5169,5.5267,5.5267,5.542,5.5446,5.5454,5.5452,5.5457,5.5456,5.5492,5.5475,5.5447,5.5445,5.5443,5.5441,0,5.4661,5.4668,5.4838,5.4893,5.491,5.5024,5.5072,5.5164,5.5178,5.5307,5.5336,5.5358,5.547,5.5476,5.5607,5.5607,5.5793,5.5774,5.5769,5.5765,5.5883,5.5871,5.6272,5.6322,5.5981,5.5984,5.5987,0,5.4839,5.4947,5.5013,5.5077,5.5116,5.522,5.5283,5.5273,5.5341,5.5424,5.5507,5.5614,5.5699,5.5881,5.5909,5.6007,5.5989,5.6123,5.6004,5.6004,5.5989,5.5981,5.5991,5.6146,5.6149,5.6152,5.6155,0,5.5153,5.5151,5.5243,5.5337,5.5412,5.5486,5.5554,5.5609,5.5607,5.5685,5.5798,5.5864,5.5995,5.6102,5.6197,5.6233,5.6194,5.6192,5.6224,5.623,5.6222,5.6225,5.583,5.6183,5.618,5.6178,5.6176,5.6175,5.538,5.5472,5.5531,5.5635,5.5684,5.5748,5.5837,5.586,5.5954,5.6058,5.6047,5.6172,5.6234,5.6357,5.64,5.6497,5.6452,5.65,5.6512,5.6523,5.6534,5.6207,5.6515,5.6514,5.6514,5.6513,5.6513,0,5.569,5.5724,5.582,5.5915,5.5996,5.595,5.6022,5.6093,5.6203,5.6263,5.6347,5.6476,5.6578,5.6612,5.6712,5.6783,5.6767,5.6809,5.6803,5.6811,5.6571,5.6531,5.682,5.682,5.682,5.6819,5.6819,5.6819,5.5861,5.6013,5.6017,5.6193,5.6227,5.6347,5.6392,5.645,5.6498,5.6643,5.6727,5.6748,5.6797,5.6899,5.6991,5.6998,5.7036,5.7085,5.7085,5.6859,5.6828,5.6799,5.6762,5.7094,5.7094,5.7317,5.7319,5.732]},{"header":{"parameterUnit":"m.s-1","parameterCategory":1,"la1":30.2991,"la2":30.254,"lo1":-89.0895,"lo2":-89.0444,"dy":0.0017,"dx":0.0017,"nx":28,"ny":28,"refTime":"2024-09-28T03:00:00:Z","depth":0,"parameterNumber":3,"parameterNumberName":"V-component_of_WINDS"},"data":[0,0,0,0,0,0,0,0,0,0,0,0,0,0,0,0,0,0,0,0,0,0,0,0,0,0,0,0,0,0,0,0,0,0,0,0,0,0,0,0,0,0,0,0,0,0,0,0,0,0,0,0,0,0,0,0,0,0,1.7746,1.7747,0,1.782,1.7821,1.7822,1.7788,1.7786,1.7784,1.7783,1.7857,1.7861,1.7864,0,0,0,0,0,0,0,0,0,0,0,0,0,1.7575,1.7578,1.7746,1.7747,1.7748,1.782,1.7821,1.7822,1.7788,1.7786,1.7784,1.7782,1.7856,1.786,1.7865,0,0,0,0,0,0,0,0,0,0,0,0,0,1.7649,1.7579,1.7746,1.774,1.774,1.782,1.7821,1.7822,1.7789,1.7786,1.7783,1.7781,1.7855,1.786,1.7865,1.7955,0,0,1.7882,1.7885,0,0,0,0,0,0,0,0,1.7645,1.7655,1.774,1.7741,1.7741,1.7792,1.7788,1.7867,1.7789,1.777,1.7782,1.7779,1.7838,1.7844,1.7864,1.7958,1.7961,1.7883,1.7886,1.7889,1.789,0,0,0,0,0,0,0,1.764,1.7652,1.7775,1.7741,1.7742,1.7733,1.7741,1.7803,1.7819,1.7772,1.777,1.7779,1.7837,1.7859,1.7866,1.7963,1.7883,1.7888,1.7891,1.7893,1.8132,1.8135,0,0,0,0,0,0,1.7635,1.7648,1.7773,1.7778,1.7685,1.7738,1.7747,1.7778,1.7818,1.7821,1.7781,1.7777,1.7851,1.7859,1.7868,1.7975,1.7889,1.7894,1.7897,1.8129,1.8132,1.8136,0,0,0,0,0,0,1.7631,1.7647,1.777,1.7712,1.7727,1.7744,1.778,1.7781,1.7803,1.7825,1.7827,1.78,1.7849,1.786,1.7933,1.7977,1.7896,1.7901,1.8125,1.813,1.8134,1.8189,0,0,0,0,0,0,1.7627,1.7645,1.768,1.7713,1.7731,1.7835,1.7783,1.7785,1.7813,1.7808,1.7844,1.7847,1.7848,1.7925,1.7939,1.7983,1.7906,1.8121,1.8127,1.8133,1.8183,1.8194,1.8204,0,0,0,0,0,1.7621,1.7693,1.7682,1.7697,1.7774,1.7837,1.7847,1.7847,1.7816,1.7851,1.7865,1.7846,1.797,1.7933,1.7948,1.7994,1.8119,1.8126,1.8132,1.8178,1.8192,1.8204,0,0,0,0,0,0,1.7665,1.7697,1.7686,1.7771,1.7802,1.7832,1.7875,1.7862,1.7902,1.7896,1.7894,1.7902,1.7977,1.7993,1.7951,1.8082,1.8039,1.8049,1.8069,1.8083,1.8093,1.8088,1.791,0,0,0,0,0,1.7684,1.7733,1.7759,1.7831,1.7847,1.7859,1.7886,1.7883,1.7915,1.7928,1.7947,1.7978,1.8023,1.8054,1.8097,1.8185,1.8191,1.8224,1.8235,1.8243,1.8252,1.8298,1.8313,1.8158,1.8158,1.8158,0,0,1.7726,1.7749,1.778,1.7841,1.7864,1.7914,1.787,1.7925,1.7962,1.7936,1.8006,1.8021,1.8055,1.8135,1.8171,1.8151,1.8296,1.8252,1.8258,1.8263,1.8307,1.8321,1.8334,1.8162,1.8162,1.8161,0,0,1.7826,1.7849,1.7912,1.7936,1.7971,1.7978,1.7993,1.8025,1.8034,1.8104,1.8085,1.8128,1.8208,1.8232,1.8255,1.8363,1.8347,1.8377,1.8433,1.8478,1.849,1.8501,1.8538,1.8552,1.8386,1.8386,1.8386,0,1.7872,1.7947,1.7945,1.8002,1.8028,1.8007,1.8069,1.8093,1.8141,1.8159,1.8135,1.8233,1.8255,1.834,1.8366,1.8386,1.8402,1.8374,1.8488,1.8499,1.8509,1.8545,1.8559,1.8389,1.8389,1.8389,1.8388,0,1.8002,1.8054,1.81,1.8147,1.8179,1.8238,1.8244,1.8276,1.827,1.8279,1.835,1.8375,1.8422,1.8442,1.8437,1.8526,1.8512,1.8488,1.8445,1.8527,1.8561,1.8575,1.8394,1.8393,1.8392,1.8391,0,0,1.8134,1.8178,1.8195,1.8215,1.8252,1.8292,1.8349,1.8396,1.8423,1.8456,1.8504,1.8571,1.8548,1.8575,1.8571,1.8611,1.8693,1.8582,1.8583,1.8602,1.8792,1.881,1.8826,1.8682,1.8685,1.8687,1.8789,0,1.8237,1.8338,1.8337,1.843,1.8478,1.8457,1.8507,1.8534,1.8544,1.8585,1.8595,1.8642,1.861,1.8625,1.8663,1.8675,1.8732,1.8668,1.8726,1.8728,1.8718,1.8843,1.8863,1.8958,1.8802,1.8804,1.8806,0,1.8371,1.8408,1.8506,1.8535,1.8555,1.86,1.8641,1.8681,1.8711,1.8715,1.8743,1.8734,1.8791,1.8746,1.8824,1.8781,1.8804,1.8814,1.8817,1.8823,1.8772,1.8852,1.8988,1.9002,1.8827,1.8825,1.8824,0,1.8456,1.8531,1.8599,1.8617,1.8652,1.8684,1.87,1.8728,1.8755,1.8791,1.8809,1.8851,1.8874,1.8907,1.8908,1.8875,1.8987,1.8942,1.8991,1.8991,1.9016,1.9014,1.9157,1.9031,1.9031,1.903,1.903,0,1.8571,1.8632,1.8638,1.868,1.8746,1.8744,1.881,1.8823,1.8847,1.889,1.8875,1.8916,1.8915,1.8956,1.8958,1.9022,1.9032,1.9036,1.9036,1.9038,1.9037,1.9054,1.9047,1.9034,1.9033,1.9033,1.9032,0,1.8678,1.8685,1.8757,1.8784,1.8792,1.8841,1.8863,1.8903,1.891,1.8965,1.8978,1.8989,1.9037,1.9041,1.9097,1.9097,1.9174,1.9167,1.9164,1.9163,1.9212,1.9207,1.937,1.9391,1.9251,1.9253,1.9254,0,1.8751,1.8797,1.8829,1.8857,1.8875,1.892,1.8948,1.8946,1.8975,1.9012,1.9047,1.9093,1.913,1.9206,1.9219,1.9261,1.9254,1.9308,1.9261,1.926,1.9255,1.9252,1.9256,1.9318,1.932,1.9321,1.9322,0,1.888,1.888,1.8921,1.8962,1.8996,1.9028,1.9059,1.9082,1.9084,1.9118,1.9166,1.9195,1.9251,1.9296,1.9337,1.9352,1.9337,1.9337,1.935,1.9353,1.9349,1.9351,1.919,1.9333,1.9332,1.9331,1.933,1.933,1.8972,1.9011,1.9039,1.9085,1.9107,1.9136,1.9174,1.9185,1.9226,1.9271,1.9268,1.9321,1.9348,1.9401,1.942,1.9461,1.9442,1.9462,1.9467,1.9472,1.9477,1.9342,1.9468,1.9468,1.9467,1.9467,1.9467,0,1.9099,1.9116,1.9158,1.92,1.9236,1.9218,1.925,1.9281,1.9328,1.9355,1.9391,1.9446,1.9489,1.9505,1.9547,1.9577,1.9571,1.9588,1.9586,1.9589,1.9491,1.9475,1.9592,1.9592,1.9592,1.9592,1.9592,1.9592,1.917,1.9235,1.9239,1.9315,1.9331,1.9383,1.9403,1.9428,1.945,1.9512,1.9548,1.9558,1.958,1.9623,1.9662,1.9665,1.9681,1.9701,1.9701,1.9609,1.9597,1.9585,1.9569,1.9705,1.9705,1.9796,1.9797,1.9798]}]]